• In Deutschland
  • Länderverzeichnis
  • Für 7 Tage
  • Wassertemperatur
  • Satellitenkarten
  • Wetterkarte
  • Widgets
  • user-avatar
    Anmelden

    Stündliche Wetter Eppingen

    Heute, 11 Dezember, Montag

    Zeit Temperatur Niederschläge Wind Luftdruck Luftfeuchtigkeit
    00:00 +4°C° 0,1 mm 6 m/S 721 mmHg 85%
    01:00 +4°C° 0,1 mm 6 m/S 721 mmHg 86%
    02:00 +5°C° 0,2 mm 4 m/S 721 mmHg 88%
    03:00 +4°C° 0,2 mm 3 m/S 721 mmHg 91%
    04:00 +5°C° 0,2 mm 2 m/S 721 mmHg 93%
    05:00 +5°C° 1,2 mm 2 m/S 721 mmHg 93%
    06:00 +5°C° 1,2 mm 2 m/S 720 mmHg 94%
    07:00 +4°C° 1,2 mm 2 m/S 719 mmHg 95%
    08:00 +3°C° 2,5 mm 3 m/S 719 mmHg 94%
    09:00 +3°C° 2,5 mm 3 m/S 719 mmHg 93%
    10:00 +3°C° 2,5 mm 3 m/S 718 mmHg 92%
    11:00 +3°C° 1,2 mm 3 m/S 718 mmHg 91%
    12:00 +4°C° 1,2 mm 3 m/S 718 mmHg 89%
    13:00 +4°C° 1,2 mm 3 m/S 718 mmHg 88%
    14:00 +4°C° 0,4 mm 3 m/S 718 mmHg 88%
    15:00 +4°C° 0,4 mm 3 m/S 719 mmHg 89%
    16:00 +5°C° 0,4 mm 3 m/S 719 mmHg 89%
    17:00 +5°C° 0,4 mm 3 m/S 720 mmHg 88%
    18:00 +5°C° 0,4 mm 4 m/S 721 mmHg 86%
    19:00 +5°C° 0,4 mm 4 m/S 721 mmHg 84%
    20:00 +5°C° 0,2 mm 4 m/S 722 mmHg 82%
    21:00 +5°C° 0,2 mm 5 m/S 722 mmHg 80%
    22:00 +5°C° 0,2 mm 5 m/S 722 mmHg 78%
    23:00 +5°C° 0 mm 5 m/S 723 mmHg 79%

    Morgen, 12 Dezember, Dienstag

    Zeit Temperatur Niederschläge Wind Luftdruck Luftfeuchtigkeit
    00:00 +4°C° 0 mm 6 m/S 724 mmHg 79%
    01:00 +4°C° 0 mm 6 m/S 725 mmHg 79%
    02:00 +3°C° 0,1 mm 6 m/S 726 mmHg 79%
    03:00 +2°C° 0,1 mm 6 m/S 727 mmHg 79%
    04:00 0°C° 0,1 mm 7 m/S 728 mmHg 79%
    05:00 +1°C° 0,1 mm 6 m/S 730 mmHg 80%
    06:00 +1°C° 0,1 mm 6 m/S 732 mmHg 81%
    07:00 +1°C° 0,1 mm 6 m/S 733 mmHg 81%
    08:00 +1°C° 0 mm 6 m/S 735 mmHg 81%
    09:00 +1°C° 0 mm 5 m/S 736 mmHg 82%
    10:00 +1°C° 0 mm 5 m/S 738 mmHg 82%
    11:00 +1°C° 0 mm 5 m/S 738 mmHg 80%
    12:00 +1°C° 0 mm 5 m/S 739 mmHg 78%
    13:00 +2°C° 0 mm 5 m/S 740 mmHg 76%
    14:00 +2°C° 0 mm 5 m/S 740 mmHg 77%
    15:00 +1°C° 0 mm 4 m/S 741 mmHg 78%
    16:00 +1°C° 0 mm 4 m/S 742 mmHg 79%
    17:00 0°C° 0 mm 4 m/S 742 mmHg 81%
    18:00 +1°C° 0 mm 3 m/S 743 mmHg 82%
    19:00 0°C° 0 mm 3 m/S 744 mmHg 84%
    20:00 0°C° 0 mm 3 m/S 744 mmHg 85%
    21:00 0°C° 0 mm 3 m/S 745 mmHg 87%
    22:00 -1°C° 0 mm 3 m/S 746 mmHg 88%
    23:00 -1°C° 0 mm 3 m/S 746 mmHg 88%

    übermorgen, 13 Dezember, Mittwoch

    Zeit Temperatur Niederschläge Wind Luftdruck Luftfeuchtigkeit
    00:00 -1°C° 0 mm 3 m/S 746 mmHg 88%
    01:00 -1°C° 0 mm 3 m/S 746 mmHg 89%
    02:00 -1°C° 0 mm 3 m/S 746 mmHg 88%
    03:00 -1°C° 0 mm 3 m/S 746 mmHg 88%
    04:00 -1°C° 0 mm 3 m/S 746 mmHg 88%
    05:00 -1°C° 0 mm 3 m/S 745 mmHg 86%
    06:00 -1°C° 0 mm 3 m/S 745 mmHg 85%
    07:00 -1°C° 0 mm 3 m/S 745 mmHg 84%
    08:00 -1°C° 0 mm 4 m/S 745 mmHg 80%
    09:00 -1°C° 0 mm 4 m/S 744 mmHg 76%
    10:00 0°C° 0 mm 4 m/S 744 mmHg 72%
    11:00 +1°C° 0 mm 4 m/S 743 mmHg 68%
    12:00 +3°C° 0 mm 4 m/S 742 mmHg 64%
    13:00 +3°C° 0 mm 5 m/S 741 mmHg 60%
    14:00 +2°C° 0,6 mm 5 m/S 740 mmHg 65%
    15:00 +2°C° 0,6 mm 5 m/S 739 mmHg 71%
    16:00 +2°C° 0,6 mm 5 m/S 739 mmHg 76%
    17:00 +2°C° 0,6 mm 5 m/S 738 mmHg 79%
    18:00 +2°C° 0,6 mm 6 m/S 738 mmHg 81%
    19:00 +3°C° 0,6 mm 6 m/S 737 mmHg 84%
    20:00 +3°C° 0,1 mm 6 m/S 737 mmHg 84%
    21:00 +3°C° 0,1 mm 6 m/S 737 mmHg 84%
    22:00 +3°C° 0,1 mm 6 m/S 736 mmHg 84%
    23:00 +3°C° 0,3 mm 6 m/S 736 mmHg 84%

    14 Dezember, Donnerstag

    Zeit Temperatur Niederschläge Wind Luftdruck Luftfeuchtigkeit
    00:00 +4°C° 0,3 mm 6 m/S 735 mmHg 85%
    01:00 +4°C° 0,3 mm 6 m/S 735 mmHg 86%
    02:00 +4°C° 1,1 mm 6 m/S 735 mmHg 87%
    03:00 +4°C° 1,1 mm 6 m/S 735 mmHg 88%
    04:00 +5°C° 1,1 mm 5 m/S 735 mmHg 90%
    05:00 +3°C° 0,3 mm 5 m/S 735 mmHg 90%
    06:00 +4°C° 0,3 mm 4 m/S 735 mmHg 91%
    07:00 +4°C° 0,3 mm 3 m/S 735 mmHg 91%
    08:00 +4°C° 0 mm 4 m/S 735 mmHg 90%
    09:00 +4°C° 0 mm 4 m/S 734 mmHg 89%
    10:00 +4°C° 0 mm 4 m/S 734 mmHg 88%
    11:00 +5°C° 0,1 mm 5 m/S 733 mmHg 84%
    12:00 +5°C° 0,1 mm 6 m/S 732 mmHg 80%
    13:00 +5°C° 0,1 mm 7 m/S 731 mmHg 76%
    14:00 +5°C° 0,1 mm 7 m/S 731 mmHg 76%
    15:00 +5°C° 0,1 mm 7 m/S 730 mmHg 77%
    16:00 +5°C° 0,1 mm 7 m/S 729 mmHg 77%
    17:00 +5°C° 1,8 mm 7 m/S 728 mmHg 79%
    18:00 +4°C° 1,8 mm 7 m/S 728 mmHg 81%
    19:00 +4°C° 1,8 mm 7 m/S 727 mmHg 82%
    20:00 +3°C° 1,9 mm 6 m/S 728 mmHg 84%
    21:00 +3°C° 1,9 mm 5 m/S 729 mmHg 85%
    22:00 +3°C° 1,9 mm 4 m/S 729 mmHg 86%
    23:00 +3°C° 0,4 mm 4 m/S 730 mmHg 85%

    15 Dezember, Freitag

    Zeit Temperatur Niederschläge Wind Luftdruck Luftfeuchtigkeit
    00:00 +1°C° 0,4 mm 4 m/S 731 mmHg 84%
    01:00 +1°C° 0,4 mm 4 m/S 732 mmHg 83%
    02:00 0°C° 0 mm 4 m/S 732 mmHg 84%
    03:00 0°C° 0 mm 4 m/S 733 mmHg 85%
    04:00 0°C° 0 mm 4 m/S 733 mmHg 85%
    05:00 -1°C° 0 mm 4 m/S 734 mmHg 86%
    06:00 -1°C° 0 mm 4 m/S 734 mmHg 87%
    07:00 -1°C° 0 mm 4 m/S 734 mmHg 87%
    08:00 -1°C° 0 mm 4 m/S 735 mmHg 86%
    09:00 +1°C° 0 mm 3 m/S 735 mmHg 85%
    10:00 +1°C° 0 mm 3 m/S 735 mmHg 83%
    11:00 +2°C° 0 mm 3 m/S 735 mmHg 81%
    12:00 +2°C° 0 mm 3 m/S 734 mmHg 79%
    13:00 +3°C° 0 mm 3 m/S 734 mmHg 76%
    14:00 +3°C° 0 mm 3 m/S 734 mmHg 78%
    15:00 +3°C° 0 mm 2 m/S 734 mmHg 81%
    16:00 +3°C° 0 mm 2 m/S 734 mmHg 83%
    17:00 +2°C° 0 mm 2 m/S 734 mmHg 84%
    18:00 +2°C° 0 mm 2 m/S 734 mmHg 85%
    19:00 +1°C° 0 mm 2 m/S 735 mmHg 86%
    20:00 +1°C° 0 mm 2 m/S 735 mmHg 86%
    21:00 +1°C° 0 mm 2 m/S 735 mmHg 86%
    22:00 +1°C° 0 mm 2 m/S 735 mmHg 86%
    23:00 +1°C° 0 mm 2 m/S 736 mmHg 86%

    16 Dezember, Samstag

    Zeit Temperatur Niederschläge Wind Luftdruck Luftfeuchtigkeit
    00:00 +1°C° 0 mm 2 m/S 736 mmHg 86%
    01:00 +1°C° 0 mm 2 m/S 736 mmHg 86%
    02:00 +1°C° 0,2 mm 2 m/S 736 mmHg 88%
    03:00 +1°C° 0,2 mm 2 m/S 737 mmHg 89%
    04:00 +2°C° 0,2 mm 2 m/S 737 mmHg 91%
    05:00 +2°C° 0,1 mm 2 m/S 737 mmHg 91%
    06:00 +1°C° 0,1 mm 2 m/S 738 mmHg 92%
    07:00 +1°C° 0,1 mm 2 m/S 738 mmHg 92%
    08:00 +1°C° 0,1 mm 2 m/S 739 mmHg 91%
    09:00 0°C° 0,1 mm 3 m/S 739 mmHg 90%
    10:00 0°C° 0,1 mm 3 m/S 740 mmHg 89%
    11:00 +1°C° 0 mm 3 m/S 740 mmHg 87%
    12:00 +1°C° 0 mm 3 m/S 741 mmHg 85%
    13:00 +1°C° 0 mm 4 m/S 741 mmHg 83%
    14:00 0°C° 0 mm 4 m/S 741 mmHg 85%
    15:00 +1°C° 0 mm 3 m/S 742 mmHg 86%
    16:00 +1°C° 0 mm 3 m/S 742 mmHg 88%
    17:00 +1°C° 0,1 mm 3 m/S 743 mmHg 88%
    18:00 +1°C° 0,1 mm 3 m/S 743 mmHg 89%
    19:00 +1°C° 0,1 mm 3 m/S 744 mmHg 90%
    20:00 +1°C° 0,1 mm 3 m/S 744 mmHg 90%
    21:00 0°C° 0,1 mm 3 m/S 744 mmHg 90%
    22:00 0°C° 0,1 mm 3 m/S 745 mmHg 90%
    23:00 0°C° 0,1 mm 3 m/S 745 mmHg 90%
    Mehr zeigen